Regional Weather Roundup
Issued by NWS Little Rock, AR

Home | Current Version | Previous Version | Text Only | Print | Product List | Glossary Off
Versions: 1 2 3 4 5 6 7 8 9 10 11 12 13 14 15 16 17 18 19 20 21 22 23 24 25 26 27 28 29 30 31 32 33 34 35 36 37 38 39 40 41 42 43 44 45 46 47 48 49

000
ASUS44 KLZK 291505
RWRLZK

WEATHER ROUNDUP FOR ARKANSAS
NATIONAL WEATHER SERVICE LITTLE ROCK AR
1000 AM CDT FRI MAY 29 2015

NOTE: "FAIR" INDICATES FEW OR NO CLOUDS BELOW 12,000 FEET WITH NO
SIGNIFICANT WEATHER AND/OR OBSTRUCTIONS TO VISIBILITY.

ARZ001-003-010-029-291600-
NORTHWEST ARKANSAS

CITY           SKY/WX    TMP DP  RH WIND       PRES   REMARKS
FAYETTEVILLE   CLOUDY    69  67  93 CALM      30.04S
FORT SMITH     CLOUDY    71  67  87 E7        29.99S THUNDER
HARRISON       CLOUDY    75  68  78 S8        30.07S
BENTONVILLE    CLOUDY    70  64  83 S5        30.06R
ROGERS         LGT RAIN  69  67  93 E5        30.06S
SILOAM SPGS    CLOUDY    70  63  78 E6        30.04F
HIGHFILL       LGT RAIN  70  68  93 SE5       30.04S FOG
SPRINGDALE     RAIN      70  68  94 SE5       30.07S FOG
$$

ARZ004-005-016-291600-
NORTH CENTRAL ARKANSAS

CITY           SKY/WX    TMP DP  RH WIND       PRES   REMARKS
BATESVILLE     MOSUNNY   81  70  69 SE8       30.06S
FLIPPIN        MOSUNNY   79  68  69 SW6       30.03F
MTN HOME       MOSUNNY   76  68  76 S6        30.05S
$$

ARZ040-041-291600-
WEST CENTRAL ARKANSAS

CITY           SKY/WX    TMP DP  RH WIND       PRES   REMARKS
MENA           CLOUDY    75  70  83 NE5       30.00F
MOUNT IDA      CLOUDY    75  70  84 SE5       30.00F
$$

ARZ009-017-025-026-028-291600-
NORTHEAST ARKANSAS

CITY           SKY/WX    TMP DP  RH WIND       PRES   REMARKS
CORNING        FAIR      79  72  78 S7        30.07F
JONESBORO      MOSUNNY   77  71  82 SE6       30.07S
NEWPORT        SUNNY     82  72  72 S8        30.07F HX  86
WALNUT RIDGE   SUNNY     79  70  73 S10       30.06F
BLYTHEVILLE    MOSUNNY   76  72  87 SE10      30.10S
NW BLYTHEVILLE PTSUNNY   77  70  78 SE9       30.08F
$$

ARZ022-023-033-042-044-291600-
CENTRAL ARKANSAS

CITY           SKY/WX    TMP DP  RH WIND       PRES   REMARKS
LITTLE ROCK    PTSUNNY   78  69  73 SW5       30.05S
N LITTLE ROCK  PTSUNNY   76  71  83 S8        30.05S
JACKSONVILLE   PTSUNNY   78  70  77 S8        30.05S
SEARCY         PTSUNNY   80  73  79 S7        30.07S
HOT SPRINGS    CLOUDY    74  69  85 SE7       30.03F
RUSSELLVILLE   PTSUNNY   76  69  79 E6        30.03F
CLINTON        FAIR      75  72  88 SE5       30.07F
$$

ARZ036-291600-
EAST ARKANSAS

CITY           SKY/WX    TMP DP  RH WIND       PRES   REMARKS
WEST MEMPHIS   MOSUNNY   78  73  84 SE10      30.07F
$$

ARZ050-053-066-070-073-291600-
SOUTHWEST ARKANSAS

CITY           SKY/WX    TMP DP  RH WIND       PRES   REMARKS
ARKADELPHIA    FAIR      76  75  96 VRB3      30.03F
CAMDEN         CLOUDY    77  70  78 NE3       30.03F
TEXARKANA      CLOUDY    73  71  93 SE7       29.98F
EL DORADO      CLOUDY    77  71  82 S5        30.03F
DE QUEEN       CLOUDY    71  69  93 E26G38    29.95F
$$

ARZ056-057-069-291600-
SOUTHEAST ARKANSAS

CITY           SKY/WX    TMP DP  RH WIND       PRES   REMARKS
PINE BLUFF     MOSUNNY   79  72  79 SW7       30.05F
STUTTGART      MOSUNNY   79  70  73 S9        30.07S
MONTICELLO     PTSUNNY   79  74  84 W7        30.05F

$$




USA.gov is the U.S. government's official web portal to all federal, state and local government web resources and services.